STARLINK-34472, 64434

Orbit data source: Space-Track

STARLINK-34472, 64434 is a payload satellite owned by SpaceX/Seattle (US) in LEO that was launched on Tue, 17 Jun 2025 UTC via an FALCON 9 launch vehicle from the Air Force Western Test Range (AFWTR). Payload-class satellites include a variety of spacecraft equipped with specific instruments for various scientific and technological missions. These include communications satellites like Starlink; space stations such as the ISS; scientific satellites like the Hubble; Earth observation satellites from companies like Planet Labs, Umbra, and HawkEye 360; GPS; miniature CubeSats for education and research; and military/defense satellites.

Loading next visibility...
Identifier
64434, 2025-129Y
Orbit
LEO
Country
Flag of USUS
Related business
Manufacturer
SpaceX/Seattle
Mission
Operational Commercial Communications
Bus & Motor
STARLINK V2MO, Unknown motor
Mass
575 kg wet, ~530 kg dry
Launch date (UTC)
2025-06-17 (1 year ago)
Launch vehicle
FALCON 9
Launch site
Air Force Western Test Range (AFWTR)
Object type
Payload
Rocket body
Debris
Shape & HBR
Box + 2 Pan, 17.7 m
Radar Cross Section
36.964 m², Large (>1 m²)

Expand to show TLE details & history
Last TLE update: 12 hours ago

TLE from 12 hours ago
0 STARLINK-34472
1 64434U 25129Y   26171.35085683  .00002962  00000-0  25592-3 0  9990
2 64434  70.0011 175.6603 0004170 264.2120  95.8563 14.98335988 56666
Epoch: 2026-06-20T08:25Z
TLE epoch observation values (Epoch: 2026-06-20T08:25:14.030Z)
Latitude
-0.00007°
Longitude
140.78508°
Altitude
574.758 km
Speed
7.574 km/s
True Right ascension
11h 42m 38s
True Declination
0° 00' 00"
Sunlit
Object was in daylight at epoch
Visualization orbit readout
Latitude
Unknown
Longitude
Unknown
Altitude
Unknown
Speed
Unknown
Apparent Right ascension
Unknown
Apparent Declination
Unknown
Sunlit
N/A
Visualization observer readout
Local Sidereal Time
07:21:33
Azimuth
Unknown
Elevation
Unknown
Doppler factor
Unknown
Orbital elements
Apogee altitude
572.883 km
Perigee altitude
567.088 km
Semi-major axis
6,948.122 km
Eccentricity
0.00042
Inclination
70.0011°
RAAN
175.6603°
Arg. of periapsis
264.212°
True anomaly
95.90383°
Mean anomaly
95.8563°
Eccentric anomaly
95.88007°
Mean motion
3.7475 °/min
Orbital period
96.06 mins
BSTAR
0.00025592
Loading maneuver chart data...
Computing Atmospheric mass density...
Loading historical data...
Loading historical data...
Loading historical data...
Loading historical data...
Loading historical data...
Loading historical data...
Loading historical data...

Documentation

Showing up to 5 results
|